Weather History for Andrews, NC

Change the Weather History Date:

Wednesday, October 24, 2012

  Actual Average (KTYS) Record (KTYS)
Temperature  
Mean Temperature 58 °F 57 °F  
Max Temperature 80 °F 69 °F 84 °F (1939)
Min Temperature 37 °F 46 °F 28 °F (1917)
Degree Days  
Heating Degree Days 6 8  
Month to date heating degree days 128  
Since 1 July heating degree days 151  
Cooling Degree Days 0 1  
Month to date cooling degree days 35  
Year to date cooling degree days 1522  
Growing Degree Days 8 (Base 50)    
Moisture  
Dew Point 45 °F    
Average Humidity 76    
Maximum Humidity 100    
Minimum Humidity 28    
Precipitation  
Precipitation 0.00 in 0.08 in 1.19 in (1887)
Month to date precipitation 1.88  
Year to date precipitation 38.72  
Snow  
Snow 0.00 in 0.00 in - ()
Month to date snowfall 0.0  
Since 1 July snowfall 0.0  
Since 1 September snowfall 0.0  
Snow Depth -    
Sea Level Pressure  
Sea Level Pressure 30.18 in    
Wind  
Wind Speed 1 mph (West)    
Max Wind Speed 8 mph    
Max Gust Speed -    
Visibility 8 miles    
Events      
T = Trace of Precipitation, MM = Missing Value Source: NWS Daily Summary

Daily Weather History Graph

Daily Weather History Graph

Search for Another Location

Airport:

Trip Planner

Search our weather history database for the weather conditions in past years. The results will help you decide how hot, cold, wet, or windy it might be!

Date:

Astronomy

Oct. 24, 2012 Rise Set
Actual Time 7:49 AM EDT 6:48 PM EDT
Civil Twilight 7:23 AM EDT 7:14 PM EDT
Nautical Twilight 6:54 AM EDT 7:44 PM EDT
Astronomical Twilight 6:24 AM EDT 8:13 PM EDT
Moon 3:55 PM EDT (10/24) 2:54 AM EDT (10/24)
Length of Visible Light 11h 50m
Length of Day
10h 59m
Waxing Gibbous, 76% of the Moon is Illuminated
Oct 24
Waxing Gibbous
Oct 29
Full
Nov 6
Last Quarter
Nov 13
New
Nov 20
First Quarter

Hourly Weather History & Observations

Time (EDT) Temp. Dew Point Humidity Pressure Visibility Wind Dir Wind Speed Gust Speed Precip Events Conditions
12:15 AM 44.6 °F 44.6 °F 100% 30.19 in 10.0 mi Calm Calm - N/A   Clear
12:35 AM 44.6 °F 44.6 °F 100% 30.19 in 10.0 mi Calm Calm - N/A   Clear
12:55 AM 44.6 °F 44.6 °F 100% 30.19 in 10.0 mi Calm Calm - N/A   Clear
1:15 AM 44.6 °F 44.6 °F 100% 30.20 in 10.0 mi Calm Calm - N/A   Clear
1:35 AM 42.8 °F 42.8 °F 100% 30.20 in 7.0 mi Calm Calm - N/A   Clear
1:55 AM 42.8 °F 42.8 °F 100% 30.20 in 7.0 mi Calm Calm - N/A   Clear
2:15 AM 42.8 °F 42.8 °F 100% 30.20 in 10.0 mi Calm Calm - N/A   Clear
2:35 AM 42.8 °F 42.8 °F 100% 30.20 in 10.0 mi Calm Calm - N/A   Clear
2:55 AM 42.8 °F 42.8 °F 100% 30.20 in 7.0 mi Calm Calm - N/A   Clear
3:15 AM 42.8 °F 42.8 °F 100% 30.20 in 4.0 mi Calm Calm - N/A   Clear
3:35 AM 42.8 °F 42.8 °F 100% 30.21 in 3.0 mi Calm Calm - N/A   Clear
3:55 AM 41.0 °F 41.0 °F 100% 30.21 in 5.0 mi Calm Calm - N/A   Clear
4:15 AM 42.8 °F 42.8 °F 100% 30.21 in 5.0 mi Calm Calm - N/A   Clear
4:35 AM 42.8 °F 42.8 °F 100% 30.21 in 5.0 mi Calm Calm - N/A   Clear
4:55 AM 41.0 °F 41.0 °F 100% 30.21 in 4.0 mi Calm Calm - N/A   Clear
5:15 AM 41.0 °F 41.0 °F 100% 30.21 in 5.0 mi Calm Calm - N/A   Clear
5:35 AM 41.0 °F 41.0 °F 100% 30.21 in 5.0 mi Calm Calm - N/A   Clear
5:55 AM 41.0 °F 41.0 °F 100% 30.22 in 7.0 mi Calm Calm - N/A   Clear
6:15 AM 41.0 °F 41.0 °F 100% 30.23 in 4.0 mi Calm Calm - N/A   Clear
6:35 AM 39.2 °F 39.2 °F 100% 30.23 in 3.0 mi Calm Calm - N/A   Clear
6:55 AM 37.4 °F 37.4 °F 100% 30.23 in 5.0 mi Calm Calm - N/A   Clear
7:15 AM 37.4 °F 37.4 °F 100% 30.23 in 2.0 mi Calm Calm - N/A   Clear
7:35 AM 37.4 °F 37.4 °F 100% 30.24 in 1.5 mi Calm Calm - N/A   Unknown
7:55 AM 37.4 °F 37.4 °F 100% 30.25 in 4.0 mi Calm Calm - N/A   Clear
8:15 AM 39.2 °F 39.2 °F 100% 30.25 in 2.5 mi Calm Calm - N/A   Clear
8:35 AM 42.8 °F 42.8 °F 100% 30.25 in 3.0 mi Calm Calm - N/A   Clear
8:55 AM 44.6 °F 44.6 °F 100% 30.26 in 7.0 mi Calm Calm - N/A   Clear
9:15 AM 46.4 °F 46.4 °F 100% 30.25 in 5.0 mi Calm Calm - N/A   Clear
9:55 AM 50.0 °F 50.0 °F 100% 30.25 in 10.0 mi Calm Calm - N/A   Clear
10:35 AM 57.2 °F 50.0 °F 77% 30.24 in 10.0 mi Calm Calm - N/A   Clear
10:55 AM 60.8 °F 50.0 °F 68% 30.23 in 10.0 mi Calm Calm - N/A   Clear
11:15 AM 64.4 °F 50.0 °F 59% 30.23 in 10.0 mi Calm Calm - N/A   Clear
11:35 AM 68.0 °F 46.4 °F 46% 30.22 in 10.0 mi Calm Calm - N/A   Clear
11:55 AM 69.8 °F 48.2 °F 46% 30.21 in 10.0 mi Calm Calm - N/A   Clear
12:15 PM 71.6 °F 46.4 °F 41% 30.20 in 10.0 mi West 5.8 mph - N/A   Clear
12:35 PM 71.6 °F 46.4 °F 41% 30.20 in 10.0 mi West 4.6 mph - N/A   Clear
12:55 PM 73.4 °F 44.6 °F 36% 30.18 in 10.0 mi SW 3.5 mph - N/A   Clear
1:15 PM 77.0 °F 46.4 °F 34% 30.18 in 10.0 mi WSW 3.5 mph - N/A   Clear
1:35 PM 77.0 °F 46.4 °F 34% 30.17 in 10.0 mi West 6.9 mph - N/A   Clear
1:55 PM 77.0 °F 46.4 °F 34% 30.15 in 10.0 mi SW 5.8 mph - N/A   Clear
2:15 PM 78.8 °F 46.4 °F 32% 30.14 in 10.0 mi West 3.5 mph - N/A   Clear
2:35 PM 78.8 °F 46.4 °F 32% 30.13 in 10.0 mi West 4.6 mph - N/A   Clear
3:15 PM 80.6 °F 46.4 °F 30% 30.12 in 10.0 mi WNW 5.8 mph - N/A   Clear
3:35 PM 80.6 °F 46.4 °F 30% 30.11 in 10.0 mi West 8.1 mph - N/A   Clear
3:55 PM 80.6 °F 44.6 °F 28% 30.11 in 10.0 mi West 4.6 mph - N/A   Clear
4:15 PM 80.6 °F 44.6 °F 28% 30.11 in 10.0 mi West 5.8 mph - N/A   Clear
4:35 PM 80.6 °F 44.6 °F 28% 30.10 in 10.0 mi West 3.5 mph - N/A   Clear
4:55 PM 80.6 °F 44.6 °F 28% 30.10 in 10.0 mi West 5.8 mph - N/A   Clear
5:15 PM 78.8 °F 44.6 °F 30% 30.10 in 10.0 mi West 4.6 mph - N/A   Clear
5:35 PM 78.8 °F 44.6 °F 30% 30.10 in 10.0 mi West 4.6 mph - N/A   Clear
5:55 PM 77.0 °F 46.4 °F 34% 30.11 in 10.0 mi West 3.5 mph - N/A   Clear
6:15 PM 71.6 °F 50.0 °F 46% 30.11 in 10.0 mi Calm Calm - N/A   Clear
6:35 PM 68.0 °F 50.0 °F 52% 30.11 in 10.0 mi Calm Calm - N/A   Clear
6:55 PM 64.4 °F 50.0 °F 59% 30.12 in 10.0 mi Calm Calm - N/A   Clear
7:15 PM 60.8 °F 50.0 °F 68% 30.13 in 10.0 mi Calm Calm - N/A   Clear
7:35 PM 55.4 °F 50.0 °F 82% 30.14 in 10.0 mi Calm Calm - N/A   Clear
7:55 PM 55.4 °F 50.0 °F 82% 30.14 in 10.0 mi Calm Calm - N/A   Clear
8:15 PM 57.2 °F 50.0 °F 77% 30.15 in 10.0 mi Calm Calm - N/A   Clear
8:35 PM 51.8 °F 50.0 °F 94% 30.15 in 10.0 mi Calm Calm - N/A   Clear
8:55 PM 51.8 °F 48.2 °F 88% 30.16 in 10.0 mi Calm Calm - N/A   Clear
9:15 PM 51.8 °F 50.0 °F 94% 30.16 in 10.0 mi Calm Calm - N/A   Clear
9:35 PM 51.8 °F 50.0 °F 94% 30.17 in 10.0 mi Calm Calm - N/A   Clear
9:55 PM 50.0 °F 48.2 °F 94% 30.17 in 10.0 mi Calm Calm - N/A   Clear
10:15 PM 50.0 °F 48.2 °F 94% 30.17 in 10.0 mi Calm Calm - N/A   Clear
10:35 PM 46.4 °F 46.4 °F 100% 30.18 in 10.0 mi Calm Calm - N/A   Clear
10:55 PM 46.4 °F 46.4 °F 100% 30.18 in 10.0 mi Calm Calm - N/A   Clear
11:15 PM 46.4 °F 46.4 °F 100% 30.18 in 10.0 mi Calm Calm - N/A   Clear
11:35 PM 46.4 °F 46.4 °F 100% 30.18 in 10.0 mi Calm Calm - N/A   Clear
11:55 PM 46.4 °F 46.4 °F 100% 30.17 in 10.0 mi Calm Calm - N/A   Clear